This is the latest recevied weather packets stored in our database for station/object K2NV. If no packets are shown the sender has not sent any weather packets the latest 10 day(s).
| Time | Temp. | Humidity | Pressure | Rain* | Wind** | Luminosity | Snow |
|---|---|---|---|---|---|---|---|
| 1778019556 | 10° C | 89% | 1007.2 hPa | 3.05 mm | - | - | - |
| 1778019257 | 10° C | 89% | 1007.2 hPa | 3.05 mm | - | - | - |
| 1778018956 | 10° C | 89% | 1007.1 hPa | 3.05 mm | - | - | - |
| 1778018657 | 10° C | 89% | 1007 hPa | 2.79 mm | - | - | - |
| 1778018355 | 10° C | 88% | 1007 hPa | 2.79 mm | - | - | - |
| 1778018056 | 10° C | 88% | 1006.8 hPa | 3.3 mm | - | - | - |
| 1778017758 | 10° C | 88% | 1006.7 hPa | 3.56 mm | - | - | - |
| 1778017456 | 10° C | 88% | 1006.8 hPa | 3.56 mm | - | - | - |
| 1778017157 | 10° C | 87% | 1006.9 hPa | 3.56 mm | - | - | - |
| 1778016857 | 10.56° C | 87% | 1007.1 hPa | 3.56 mm | - | - | - |
| 1778016557 | 10.56° C | 87% | 1006.7 hPa | 3.56 mm | - | - | - |
| 1778016257 | 10.56° C | 87% | 1006.6 hPa | 3.3 mm | - | - | - |
| 1778015957 | 10.56° C | 87% | 1006.3 hPa | 3.05 mm | - | - | - |
| 1778015657 | 10.56° C | 86% | 1006.2 hPa | 3.05 mm | - | - | - |
| 1778015357 | 11.11° C | 85% | 1006.1 hPa | 2.79 mm | - | - | - |
| 1778015055 | 11.67° C | 86% | 1006.2 hPa | 2.54 mm | - | - | - |
| 1778014756 | 11.67° C | 87% | 1006.3 hPa | 2.29 mm | - | - | - |
| 1778014456 | 11.67° C | 86% | 1006 hPa | 1.52 mm | - | - | - |
| 1778014156 | 11.67° C | 85% | 1005.6 hPa | 1.02 mm | - | - | - |
| 1778013858 | 12.22° C | 84% | 1005.4 hPa | 0.76 mm | - | - | - |
| 1778013556 | 12.22° C | 83% | 1005.1 hPa | 0.51 mm | - | - | - |
| 1778013256 | 12.22° C | 82% | 1005 hPa | 0.25 mm | - | - | - |
| 1778012957 | 12.78° C | 82% | 1004.9 hPa | 0 mm | - | - | - |
| 1778012656 | 12.78° C | 81% | 1004.8 hPa | 0 mm | - | - | - |
| 1778012357 | 13.33° C | 79% | 1004.6 hPa | 0 mm | - | - | - |
* Rain latest hour (hover to see other rain measurements)
** Current wind speed in m/s (hover to see current wind gust speed)